#timestamp,LO_Frequency,Hit,StdDev 
1652889615.6,286047011.9,N
1652889635.5,286047006.4,N
1652889655.3,286047007.1,N
1652889675.1,286047005.3,N
1652889695.9,286047006.9,N
1652889715.7,286047006.9,N
1652889735.6,286047010.3,N
1652889755.4,286047010.6,Y
1652889775.2,286047000.1,P
1652889795.1,286047000.1,N
1652889796.0,286047000.1,N
1652889815.8,286047003.8,N
1652889835.7,286047004.4,N
1652889855.5,286047000.4,N
1652889875.3,286046998.5,N
1652889895.2,286046997.5,N
1652889915.9,286047000.9,N
1652889965.8,286046996.6,E
1652889975.7,286047004.3,N
1652889995.5,286047009.1,P
1652890015.4,286047009.1,P
1652890035.2,286047006.9,Y
1652890055.0,286047001.0,P
1652890055.9,286047001.0,N
1652890075.8,286046999.7,N
1652890095.6,286047004.8,N
1652890115.5,286047007.4,N
1652890135.3,286047009.3,N
1652890155.1,286047011.5,Y
1652890175.9,286047006.3,P
1652890195.7,286047001.3,N
1652890215.6,286047002.5,N
1652890235.4,286046998.1,N
1652890255.2,286046997.2,N
1652890275.1,286046997.5,N
1652890276.0,286046997.5,N
1652890295.8,286046997.3,N
1652890315.6,286046997.2,N
1652890335.5,286046997.2,N
1652890355.3,286046999.0,N
1652890375.1,286047000.0,N
1652890395.9,286047000.4,N
1652890415.7,286047000.0,N
1652890435.6,286047002.2,N
1652890455.4,286047001.1,N
1652890475.2,286046999.3,N
1652890495.1,286046997.9,N
1652890496.0,286046997.9,N
1652890515.8,286046997.9,N
1652890535.6,286046995.5,N
1652890555.5,286046990.7,Y
1652890575.3,286046990.6,P
1652890595.2,286046993.5,N
1652890615.9,286046991.2,N
1652890635.7,286046988.9,Y
1652890655.6,286046998.9,P
1652890675.4,286046999.6,N
1652890695.3,286046998.8,N
1652890715.1,286047001.4,N
1652890716.0,286047001.4,N
1652890735.8,286047006.4,N
1652890755.7,286047009.4,N
1652890775.5,286047012.6,N
1652890795.3,286047015.0,N
1652890815.2,286047014.7,N
1652890835.0,286047013.3,N
1652890835.9,286047013.3,N
1652890855.7,286047011.5,N
1652890875.6,286047011.6,N
1652890895.4,286047015.1,N
1652890915.3,286047015.1,N
1652890935.1,286047014.2,N
1652890936.0,286047014.2,N
1652890955.8,286047020.2,N
1652890975.7,286047018.6,N
1652890995.5,286047018.2,N
1652891015.3,286047015.0,N
1652891035.2,286047017.9,N
1652891055.0,286047023.4,Y
1652891055.9,286047023.4,P
1652891075.8,286047011.9,N
1652891095.6,286047009.4,N
1652891115.4,286047010.5,N
1652891135.3,286047020.2,Y
1652891155.1,286047010.3,P
1652891175.8,286047010.4,P
1652891195.7,286047010.3,P
1652891215.5,286047010.1,Y
1652891235.4,286046996.7,P
1652891255.2,286046998.3,N
1652891275.0,286046994.7,N
1652891275.9,286046994.7,N
1652891295.8,286046993.4,N
1652891315.6,286047000.7,N
1652891335.5,286046998.4,N
1652891355.3,286047002.3,N
1652891375.1,286046999.0,N
1652891395.9,286046999.6,N
1652891415.7,286047005.3,N
1652891435.5,286047002.3,N
1652891455.4,286047000.6,N
1652891475.2,286047002.6,N
1652891495.0,286047004.6,N
1652891496.0,286047004.6,N
1652891515.8,286047008.1,N
1652891535.6,286047006.8,N
1652891555.5,286047006.3,N
1652891575.3,286047009.7,N
1652891595.1,286047014.2,N
1652891615.9,286047022.9,Y
1652891635.7,286047024.2,P
1652891655.6,286047025.7,N
1652891675.4,286047024.8,N
1652891695.2,286047020.0,N
1652891715.1,286047016.2,N
1652891716.0,286047016.2,N
1652891735.8,286047015.8,N
1652891755.6,286047017.5,N
1652891775.5,286047018.0,N
1652891795.3,286047016.6,N
1652891815.1,286047017.9,N
1652891835.9,286047018.3,Y
1652891855.7,286046999.9,P
1652891875.6,286047001.0,N
1652891895.4,286047008.9,N
1652891915.2,286047010.0,N
1652891935.1,286047009.9,N
1652891936.0,286047009.9,N
1652891955.8,286047012.0,N
1652891975.7,286047014.8,N
1652891995.5,286047016.9,Y
1652892015.3,286047007.4,P
1652892035.2,286047007.4,P
1652892055.9,286047008.4,P
1652892075.7,286047011.2,Y
1652892095.6,286046998.2,P
1652892115.4,286047002.0,N
1652892135.3,286047000.2,N
1652892155.1,286046999.6,N
1652892156.0,286046999.6,N
1652892175.8,286046995.1,N
1652892195.7,286046996.3,N
1652892215.5,286046996.7,N
1652892235.3,286046998.3,N
1652892255.2,286047006.9,N
1652892275.0,286047010.0,N
1652892275.9,286047010.0,N
1652892295.8,286047014.4,N
1652892315.6,286047011.2,N
1652892335.4,286047011.5,N
1652892355.3,286047009.6,N
1652892375.1,286047009.7,N
1652892395.8,286047009.4,N
1652892415.7,286047007.7,N
1652892435.5,286047010.5,N
1652892455.4,286047011.9,N
1652892475.2,286047007.8,N
1652892495.0,286047011.5,N
1652892495.9,286047011.5,N
1652892515.8,286047011.3,N
1652892535.6,286047010.6,N
1652892555.4,286047007.6,N
1652892575.3,286047006.8,N
1652892595.1,286047009.1,N
1652892615.9,286047013.7,N
1652892635.7,286047013.6,N
1652892655.5,286047017.1,Y
1652892675.4,286047007.4,P
1652892695.2,286047005.8,P
1652892715.0,286047006.2,P
1652892715.9,286047006.2,Y
1652892735.8,286047002.2,P
1652892755.6,286047002.9,N
1652892775.5,286047003.8,N
1652892795.3,286047003.8,N
1652892815.1,286047006.6,Y
1652892835.9,286047002.3,P
1652892855.7,286047000.3,N
1652892875.5,286047006.8,P
1652892895.4,286047008.8,Y
1652892915.2,286047003.2,P
1652892935.1,286047004.5,P
1652892936.0,286047004.5,P
1652892955.8,286047004.6,Y
1652892975.6,286047006.9,P
1652892995.5,286047006.8,P
1652893015.3,286047007.4,P
1652893035.2,286047011.6,Y
1652893055.9,286047008.9,P
1652893075.7,286047004.8,P
1652893095.6,286047008.4,P
1652893115.4,286047006.2,Y
1652893135.3,286047004.0,P
1652893155.1,286047001.7,N
1652893156.0,286047001.7,N
1652893175.8,286047005.3,N
1652893195.7,286047001.8,N
